Ignacio, CO

2:12 AM MST on February 24, 2017 (GMT -0700)
Durango-La Plata County

Weather History for KDRO - October, 2011

Change the Weather History Date:

Monday, October 31, 2011

  Actual Average Record
Temperature  
Mean Temperature 44 °F 41 °F  
Max Temperature 62 °F 56 °F 70 °F (2008)
Min Temperature 28 °F 26 °F 12 °F (1989)
Degree Days  
Heating Degree Days 20 24  
Month to date heating degree days 563  
Since 1 July heating degree days 788  
Cooling Degree Days 0 0  
Month to date cooling degree days 0  
Year to date cooling degree days 243  
Moisture  
Dew Point 28 °F    
Average Humidity 62    
Maximum Humidity 92    
Minimum Humidity 27    
Precipitation  
Precipitation 0.00 in 0.05 in 0.69 in (1974)
Month to date precipitation 1.34  
Year to date precipitation 13.22  
Sea Level Pressure  
Sea Level Pressure 30.19 in    
Wind  
Wind Speed 2 mph (WSW)    
Max Wind Speed 13 mph    
Max Gust Speed 22 mph    
Visibility 10 miles    
Events      
T = Trace of Precipitation, MM = Missing Value Source: NWS Daily Summary

Daily Weather History Graph

Daily Weather History Graph

Search for Another Location

Airport or City:

Trip Planner

Search our weather history database for the weather conditions in past years. The results will help you decide how hot, cold, wet, or windy it might be!

Date:

Astronomy

Oct. 31, 2011 Rise Set
Actual Time 7:34 AM MDT 6:14 PM MDT
Civil Twilight 7:07 AM MDT 6:41 PM MDT
Nautical Twilight 6:36 AM MDT 7:12 PM MDT
Astronomical Twilight 6:06 AM MDT 7:42 PM MDT
Moon 12:40 PM MDT (10/31) 10:56 PM MDT (10/31)
Length of Visible Light 11h 34m
Length of Day
10h 40m
Waxing Crescent, 30% of the Moon is Illuminated
Oct 31
Waxing Crescent
Nov 2
First Quarter
Nov 10
Full
Nov 18
Last Quarter
Nov 24
New

Hourly Weather History & Observations

Time (MDT) Temp. Windchill Dew Point Humidity Pressure Visibility Wind Dir Wind Speed Gust Speed Precip Events Conditions
12:53 AM 33.1 °F - 28.0 °F 82% 30.28 in 10.0 mi Calm Calm - N/A   Clear
1:53 AM 32.0 °F - 28.0 °F 85% 30.27 in 10.0 mi Calm Calm - N/A   Clear
2:53 AM 30.9 °F - 28.0 °F 89% 30.25 in 10.0 mi Calm Calm - N/A   Clear
3:53 AM 30.0 °F - 27.0 °F 88% 30.24 in 10.0 mi Calm Calm - N/A   Clear
4:53 AM 30.0 °F - 27.0 °F 88% 30.25 in 10.0 mi Calm Calm - N/A   Clear
5:53 AM 28.0 °F 22.8 °F 26.1 °F 92% 30.27 in 10.0 mi East 4.6 mph - N/A   Clear
6:53 AM 30.0 °F - 27.0 °F 88% 30.28 in 10.0 mi Calm Calm - N/A   Clear
7:53 AM 28.9 °F - 26.1 °F 89% 30.30 in 10.0 mi Calm Calm - N/A   Clear
8:53 AM 36.0 °F - 30.0 °F 79% 30.30 in 10.0 mi Calm Calm - N/A   Clear
10:53 AM 48.0 °F - 32.0 °F 54% 30.25 in 10.0 mi Calm Calm - N/A   Clear
11:53 AM 53.1 °F - 30.9 °F 43% 30.22 in 10.0 mi Calm Calm - N/A   Clear
12:53 PM 57.0 °F - 30.0 °F 36% 30.17 in 10.0 mi WSW 4.6 mph - N/A   Clear
1:53 PM 60.1 °F - 28.0 °F 30% 30.12 in 10.0 mi SW 6.9 mph - N/A   Clear
2:53 PM 61.0 °F - 28.9 °F 30% 30.10 in 10.0 mi SW 8.1 mph 17.3 mph N/A   Clear
3:53 PM 61.0 °F - 28.0 °F 29% 30.08 in 10.0 mi SW 11.5 mph 21.9 mph N/A   Clear
4:53 PM 61.0 °F - 27.0 °F 27% 30.07 in 10.0 mi WSW 12.7 mph - N/A   Clear
5:53 PM 57.0 °F - 26.1 °F 30% 30.10 in 10.0 mi SW 11.5 mph - N/A   Clear
6:53 PM 52.0 °F - 26.1 °F 37% 30.14 in 10.0 mi WSW 5.8 mph - N/A   Clear
8:53 PM 43.0 °F 41.3 °F 28.0 °F 56% 30.15 in 10.0 mi North 3.5 mph - N/A   Clear
9:53 PM 37.0 °F - 28.9 °F 73% 30.16 in 10.0 mi Calm Calm - N/A   Clear
10:53 PM 37.0 °F - 28.0 °F 70% 30.12 in 10.0 mi Calm Calm - N/A   Clear
11:53 PM 37.0 °F 32.4 °F 27.0 °F 67% 30.09 in 10.0 mi North 5.8 mph - N/A   Clear